Location: Te Maire Creek
(41.1333°S, 175.9167°E)
Time: 22:50:46
(UTC+00:00)

Cosmos 858 Rocket - Pass Details

Date: 19 May 2024
Orbit: 754 x 772 km, 74.1° (Epoch: 22 June)

Event Time Altitude Azimuth Distance (km) Brightness Sun altitude
Exits shadow 17:16:25 54° 226° (SW) 940 4.6 -23.4°
Maximum altitude 17:17:30 71° 286° (WNW) 822 4.4 -23.2°
Drops below altitude 10° 17:22:44 10° 9° (N) 2,314 7.2 -22.2°
Sets 17:25:06 0° 11° (N) 3,234 8.0 -21.8°
